Saint Paul, MN

8:43 AM CST on December 08, 2016 (GMT -0600)
Saint Paul Downtown-Holman

Weather History for KSTP - March, 2013

Change the Weather History Date:

Sunday, March 3, 2013

  Actual Average Record
Temperature  
Mean Temperature 24 °F -  
Max Temperature 32 °F 28 °F 42 °F (2001)
Min Temperature 17 °F 15 °F -9 °F (2014)
Degree Days  
Heating Degree Days 40    
Moisture  
Dew Point 8 °F    
Average Humidity 50    
Maximum Humidity 71    
Minimum Humidity 36    
Precipitation  
Precipitation 0.00 in - - ()
Sea Level Pressure  
Sea Level Pressure 30.11 in    
Wind  
Wind Speed 7 mph (SE)    
Max Wind Speed 13 mph    
Max Gust Speed -    
Visibility 10 miles    
Events      
Averages and records for this station are not official NWS values.
T = Trace of Precipitation, MM = Missing Value Source: NWS Daily Summary

Daily Weather History Graph

Daily Weather History Graph

Search for Another Location

Airport or City:

Trip Planner

Search our weather history database for the weather conditions in past years. The results will help you decide how hot, cold, wet, or windy it might be!

Date:

Astronomy

Mar. 03, 2013 Rise Set
Actual Time 6:46 AM CST 6:02 PM CST
Civil Twilight 6:16 AM CST 6:32 PM CST
Nautical Twilight 5:42 AM CST 7:06 PM CST
Astronomical Twilight 5:08 AM CST 7:40 PM CST
Moon No Moon Rise 9:44 AM CST (3/3)
Length of Visible Light 12h 15m
Length of Day
11h 16m
Waning Gibbous, 63% of the Moon is Illuminated
Mar 3
Waning Gibbous
Mar 4
Last Quarter
Mar 11
New
Mar 19
First Quarter
Mar 27
Full

Hourly Weather History & Observations

Time (CST) Temp. Windchill Dew Point Humidity Pressure Visibility Wind Dir Wind Speed Gust Speed Precip Events Conditions
12:53 AM 21.0 °F 14.6 °F 6.1 °F 53% 30.20 in 10.0 mi SSE 4.6 mph - N/A   Clear
1:53 AM 18.0 °F 12.7 °F 7.0 °F 62% 30.19 in 10.0 mi SSE 3.5 mph - N/A   Clear
2:53 AM 17.1 °F 10.0 °F 8.1 °F 68% 30.18 in 10.0 mi SSE 4.6 mph - N/A   Clear
3:53 AM 17.1 °F 11.7 °F 9.0 °F 71% 30.17 in 10.0 mi South 3.5 mph - N/A   Overcast
4:53 AM 19.0 °F 12.3 °F 8.1 °F 62% 30.16 in 10.0 mi SE 4.6 mph - N/A   Overcast
5:53 AM 17.6 °F 9.3 °F 8.6 °F 68% 30.14 in 10.0 mi SSE 5.8 mph - N/A   Overcast
6:53 AM 18.0 °F 12.7 °F 9.0 °F 68% 30.17 in 10.0 mi ESE 3.5 mph - N/A   Overcast
7:53 AM 19.0 °F 10.0 °F 8.1 °F 62% 30.17 in 10.0 mi SE 6.9 mph - N/A   Overcast
8:53 AM 21.2 °F 10.1 °F 6.8 °F 54% 30.13 in 10.0 mi SE 10.4 mph - N/A   Mostly Cloudy
9:53 AM 23.0 °F 13.1 °F 9.0 °F 55% 30.15 in 10.0 mi ESE 9.2 mph - N/A   Mostly Cloudy
10:53 AM 26.1 °F 16.2 °F 8.1 °F 47% 30.14 in 10.0 mi ESE 10.4 mph - N/A   Partly Cloudy
11:53 AM 28.0 °F 18.6 °F 10.0 °F 47% 30.13 in 10.0 mi SE 10.4 mph - N/A   Mostly Cloudy
12:53 PM 28.9 °F 21.1 °F 10.9 °F 47% 30.10 in 10.0 mi East 8.1 mph - N/A   Mostly Cloudy
1:53 PM 30.0 °F 21.7 °F 10.9 °F 45% 30.07 in 10.0 mi ESE 9.2 mph - N/A   Clear
2:53 PM 30.9 °F 21.2 °F 10.0 °F 42% 30.06 in 10.0 mi ESE 12.7 mph - N/A   Clear
3:53 PM 32.0 °F 23.6 °F 10.0 °F 40% 30.05 in 10.0 mi ESE 10.4 mph - N/A   Clear
4:53 PM 30.9 °F 22.2 °F 9.0 °F 40% 30.04 in 10.0 mi ESE 10.4 mph - N/A   Clear
5:53 PM 30.9 °F 22.2 °F 10.0 °F 42% 30.04 in 10.0 mi ESE 10.4 mph - N/A   Clear
6:53 PM 28.9 °F 20.4 °F 7.0 °F 40% 30.05 in 10.0 mi East 9.2 mph - N/A   Clear
7:53 PM 28.9 °F 19.8 °F 5.0 °F 36% 30.05 in 10.0 mi East 10.4 mph - N/A   Scattered Clouds
8:53 PM 28.0 °F 20.0 °F 6.1 °F 39% 30.05 in 10.0 mi ESE 8.1 mph - N/A   Mostly Cloudy
9:53 PM 28.0 °F 20.0 °F 7.0 °F 41% 30.04 in 10.0 mi SE 8.1 mph - N/A   Overcast
10:53 PM 28.0 °F 20.8 °F 6.1 °F 39% 30.03 in 10.0 mi ESE 6.9 mph - N/A   Overcast
11:53 PM 28.0 °F 20.0 °F 6.1 °F 39% 30.04 in 10.0 mi ESE 8.1 mph - N/A   Overcast